Regional Weather Roundup
Issued by NWS State College, PA

Current Version | Previous Version | Text Only | Print | Product List | Glossary On
Versions: 1 2 3 4 5 6 7 8 9 10 11 12 13 14 15 16 17 18 19 20 21 22 23 24 25 26 27 28 29 30 31 32 33 34 35 36 37 38 39 40 41 42 43 44 45 46 47 48 49 50
000
ASUS41 KCTP 231110
RWRCTP

REGIONAL WEATHER ROUNDUP
NATIONAL WEATHER SERVICE STATE COLLEGE PA
700 AM EDT THU OCT 23 2014

Note: "fair" indicates few or no clouds below 12,000 feet with no
significant weather and/or obstructions to visibility.

* = STATION THAT DOES NOT REPORT PRECIPITATION /E.G. RAIN...SNOW...ETC/
    THUNDER OR FOG.

PAZ002>004-007>009-013>016-020>023-029>032-231200-
WESTERN PENNSYLVANIA

CITY           SKY/WX    TMP DP  RH WIND       PRES   REMARKS
ERIE           PTCLDY    50  42  74 N10       30.17S
MEADVILLE      CLOUDY    46  41  82 N10       30.14S
FRANKLIN*      CLOUDY    46  39  76 N5        30.14S
NEW CASTLE       N/A     46  43  90 NW3       30.16S
BEAVER COUNTY  CLOUDY    45  43  93 NW5       30.15
BUTLER*        CLOUDY    46  39  76 CALM      30.15R
PITTSBURGH INT CLOUDY    47  42  83 N10       30.14R
PITTSBURGH     CLOUDY    46  39  76 NW9       30.12R
INDIANA*       CLOUDY    46  41  81 NW5       30.13S
LATROBE        CLOUDY   N/A N/A N/A NW10      30.12S
WASHINGTON CO* CLOUDY    45  39  81 NW5       30.16S
$$

PAZ004>006-010>012-017>019-024>028-033>037-041-042-045-046-049>053-231200-
CENTRAL PENNSYLVANIA

CITY           SKY/WX    TMP DP  RH WIND       PRES   REMARKS
BRADFORD       CLOUDY    42  37  82 N14G24    30.07R
DUBOIS         PTCLDY    42  38  85 NW9       30.06R
CLEARFIELD     MOCLDY    44  38  79 NW9       30.05R
JOHNSTOWN      CLOUDY    42  38  85 NW13      30.05S
ALTOONA        CLOUDY    47  40  76 NW9       30.02R
STATE COLLEGE  CLOUDY    48  41  76 N5        29.98S
WILLIAMSPORT   CLOUDY    52  40  63 W16       29.91F
SELINSGROVE    CLOUDY    52  41  66 NW8       29.90F
FT INDIANTOWN  MOCLDY    52  46  79 NW9G21    29.86R
CAPITAL CITY   CLOUDY    54  41  61 NW12      29.88F
HARRISBURG     CLOUDY    53  41  63 NW14G21   29.87F
YORK           CLOUDY    52  42  69 NW13      29.88F
$$

PAZ038>040-043-044-047-048-054-055-060>062-067>071-231200-
EASTERN PENNSYLVANIA

CITY           SKY/WX    TMP DP  RH WIND       PRES   REMARKS
SCRANTON       RAIN      47  42  83 N9G21     29.86S
MOUNT POCONO   LGT RAIN  43  41  93 NW17G25   29.78F
ALLENTOWN      LGT RAIN  51  42  71 NW14G23   29.79F
QUAKERTOWN*    CLOUDY    48  45  87 NW7G17    29.78F
READING        LGT RAIN  51  43  74 NW16      29.82F
LANCASTER      CLOUDY    51  42  71 NW10      29.85R
COATESVILLE    PTSUNNY   48  45  87 NW14      29.82R
POTTSTOWN      LGT RAIN  50  43  77 NW13      29.80S
BLUE BELL      CLOUDY    50  46  87 NW5       29.76F
DOYLESTOWN     CLOUDY    49  46  90 NW8       29.75F
WILLOW GROVE   NOT AVBL
NORTH PHILA    LGT RAIN  52  46  80 NW10      29.77S
PHILADELPHIA   RAIN      51  45  79 NW17G23   29.77S
$$



USA.gov is the U.S. government's official web portal to all federal, state and local government web resources and services.